This is the latest recevied weather packets stored in our database for station/object W0WC. If no packets are shown the sender has not sent any weather packets the latest 10 day(s).
| Time | Temp. | Humidity | Pressure | Rain* | Wind** | Luminosity | Snow |
|---|---|---|---|---|---|---|---|
| 1788221562 | 36.11° C | 31% | 1015 hPa | 0 mm | - | 33 W/m² | - |
| 1788221257 | 36.67° C | 31% | 1015.1 hPa | 0 mm | - | 36 W/m² | - |
| 1788220953 | 36.67° C | 30% | 1015 hPa | 0 mm | - | 41 W/m² | - |
| 1788220652 | 36.67° C | 30% | 1015 hPa | 0 mm | - | 46 W/m² | - |
| 1788220348 | 37.22° C | 30% | 1015.1 hPa | 0 mm | - | 62 W/m² | - |
| 1788220048 | 37.22° C | 30% | 1014.9 hPa | 0 mm | - | 71 W/m² | - |
| 1788219747 | 37.22° C | 29% | 1015.1 hPa | 0 mm | - | 79 W/m² | - |
| 1788219442 | 37.78° C | 29% | 1015.1 hPa | 0 mm | - | 85 W/m² | - |
| 1788219138 | 37.22° C | 29% | 1015 hPa | 0 mm | - | 94 W/m² | - |
| 1788218838 | 37.78° C | 29% | 1015 hPa | 0 mm | - | 107 W/m² | - |
| 1788218534 | 38.33° C | 28% | 1015 hPa | 0 mm | - | 117 W/m² | - |
| 1788218225 | 38.33° C | 28% | 1015 hPa | 0 mm | - | 133 W/m² | - |
| 1788217921 | 38.33° C | 28% | 1015 hPa | 0 mm | - | 146 W/m² | - |
| 1788217620 | 38.33° C | 28% | 1015 hPa | 0 mm | - | 158 W/m² | - |
| 1788217316 | 38.33° C | 28% | 1015 hPa | 0 mm | - | 170 W/m² | - |
| 1788217015 | 38.33° C | 28% | 1015 hPa | 0 mm | - | 185 W/m² | - |
| 1788216710 | 38.33° C | 28% | 1015 hPa | 0 mm | - | 196 W/m² | - |
| 1788216406 | 38.89° C | 28% | 1015.3 hPa | 0 mm | - | 211 W/m² | - |
| 1788216106 | 37.78° C | 29% | 1015.1 hPa | 0 mm | - | 223 W/m² | - |
| 1788215802 | 38.33° C | 28% | 1015 hPa | 0 mm | - | 237 W/m² | - |
| 1788215498 | 38.89° C | 28% | 1015.1 hPa | 0 mm | - | 245 W/m² | - |
| 1788215193 | 38.89° C | 28% | 1015.2 hPa | 0 mm | - | 263 W/m² | - |
| 1788214889 | 38.89° C | 28% | 1015.1 hPa | 0 mm | - | 278 W/m² | - |
| 1788214584 | 38.33° C | 29% | 1015.2 hPa | 0 mm | - | 290 W/m² | - |
| 1788214279 | 38.33° C | 29% | 1015.4 hPa | 0 mm | - | 307 W/m² | - |
* Rain latest hour (hover to see other rain measurements)
** Current wind speed in m/s (hover to see current wind gust speed)